Date,TemperatureHighF,TemperatureAvgF,TemperatureLowF,DewpointHighF,DewpointAvgF,DewpointLowF,HumidityHigh,HumidityAvg,HumidityLow,PressureMaxIn,PressureMinIn,WindSpeedMaxMPH,WindSpeedAvgMPH,GustSpeedMaxMPH,PrecipitationSumIn
2012-1-6,72.0,63.0,54.0,70.0,62.5,54.0,100,98,84,29.86,29.78,10,3,12,0.00
2012-1-7,74.0,61.4,54.0,72.0,61.0,54.0,100,99,83,29.88,29.75,8,1,10,0.00
2012-1-8,77.0,61.9,52.0,68.0,58.8,52.0,100,91,53,29.96,29.80,13,2,13,0.00
2012-1-9,78.0,64.3,55.0,73.0,63.2,55.0,100,97,70,29.93,29.75,12,2,12,0.00
2012-1-10,76.0,65.4,58.0,72.8,64.7,58.0,100,98,76,29.81,29.64,15,3,19,0.00
2012-1-11,103.0,65.1,61.0,70.0,65.1,61.0,100,100,100,29.64,29.47,20,5,28,0.29
2012-1-12,73.0,66.2,60.0,73.0,66.2,60.0,100,100,100,29.66,29.51,19,5,25,0.00
2012-1-13,64.0,54.1,49.0,64.0,52.6,46.6,100,95,73,29.88,29.65,21,8,25,0.01
2012-1-14,56.0,52.0,42.0,54.0,38.1,24.9,100,65,31,30.00,29.85,19,6,19,0.00
2012-1-15,66.0,56.7,49.0,63.5,52.1,44.2,100,87,47,30.15,30.02,17,4,17,0.00
2012-1-16,69.0,57.8,45.0,63.9,56.8,45.0,100,97,80,30.13,29.99,19,6,19,0.00
2012-1-17,73.0,64.6,50.0,69.4,62.5,50.0,100,94,71,29.99,29.81,15,4,19,0.00
2012-1-18,71.0,61.5,56.0,71.0,61.5,56.0,100,100,100,29.85,29.68,16,4,17,0.92
2012-1-19,70.0,59.2,53.0,59.1,51.9,39.3,100,82,34,29.87,29.69,10,3,13,0.00
2012-1-20,74.0,60.5,54.0,68.2,58.8,54.0,100,95,58,29.89,29.75,15,4,17,0.00
2012-1-21,64.0,60.4,58.0,64.0,60.4,58.0,100,100,100,29.80,29.76,11,6,11,0.00
2012-1-23,78.0,73.2,62.0,78.0,73.2,62.0,100,100,100,29.83,29.76,14,5,14,0.00
2012-1-24,76.0,70.2,62.0,76.0,70.0,62.0,100,99,95,29.89,29.80,10,4,10,0.00
2012-1-25,80.0,70.1,64.0,77.8,69.9,64.0,100,99,93,29.88,29.76,12,3,12,0.00
2012-1-26,78.0,70.2,62.0,78.0,70.0,62.0,100,99,92,29.80,29.63,21,6,23,0.00
2012-1-27,69.0,63.3,55.0,69.0,60.9,50.9,100,92,84,29.73,29.61,16,6,20,0.52
2012-1-28,66.0,58.2,51.0,66.0,56.8,51.0,100,96,84,29.87,29.70,17,4,21,0.00
2012-1-29,72.0,60.0,49.0,63.4,53.5,45.0,100,81,51,30.00,29.82,15,5,17,0.00
2012-1-30,72.0,60.8,51.0,59.7,51.8,43.3,100,75,47,30.06,29.91,15,6,19,0.00
2012-1-31,75.0,64.5,55.0,70.0,59.4,51.2,100,85,55,30.04,29.93,15,5,19,0.00
2012-2-1,78.0,65.2,58.0,75.0,64.2,58.0,100,97,74,29.95,29.83,12,4,14,0.00
2012-2-2,79.0,66.3,60.0,74.0,63.3,57.0,100,91,66,29.91,29.79,13,3,14,0.00
2012-2-3,74.0,67.8,64.0,74.0,65.9,60.4,100,93,85,29.93,29.82,15,6,18,0.00
2012-2-4,78.0,68.6,63.0,77.0,67.0,61.5,100,95,86,29.87,29.75,16,5,17,0.00
2012-2-5,78.0,69.1,64.0,78.0,68.4,64.0,100,98,83,29.81,29.69,13,3,15,0.00
2012-2-6,81.0,68.7,64.0,81.0,67.5,63.8,100,96,74,29.81,29.67,15,3,17,0.55
2012-2-7,66.0,66.0,65.0,66.0,66.0,65.0,100,100,100,29.72,29.69,9,4,13,0.00
2012-2-8,70.0,64.1,62.0,67.0,57.3,51.3,100,79,68,29.77,29.72,15,8,19,0.00
2012-2-9,70.0,62.1,56.0,70.0,58.5,47.3,100,88,70,29.85,29.73,12,5,16,0.00
2012-2-10,77.0,63.9,56.0,77.0,58.7,48.9,100,83,76,29.79,29.60,14,4,16,0.00
2012-2-11,61.0,57.1,50.0,61.0,54.3,37.1,100,91,61,29.79,29.53,26,11,31,0.18
2012-2-12,51.0,41.9,32.0,36.6,26.6,16.8,80,56,32,29.98,29.79,19,6,26,0.00
2012-2-13,63.0,47.4,35.0,48.2,38.2,27.9,100,73,36,29.90,29.73,12,3,16,0.00
2012-2-14,73.0,61.8,47.0,73.0,58.7,42.8,100,90,75,29.83,29.67,17,4,23,0.00
2012-2-15,79.0,68.9,62.0,76.0,65.1,56.4,100,88,74,29.93,29.77,13,4,15,0.00
2012-2-16,78.0,68.6,62.0,78.0,64.3,55.7,100,86,75,29.90,29.75,20,5,23,0.00
2012-2-17,69.0,67.0,65.0,69.0,67.0,64.8,100,100,96,29.78,29.68,9,2,10,1.34
2012-2-18,76.0,68.4,64.0,70.4,64.8,58.9,100,89,66,29.70,29.56,13,4,14,0.01
2012-2-19,76.0,68.1,62.0,75.1,66.1,57.1,100,94,83,29.63,29.51,22,9,27,0.00
2012-2-20,69.0,59.9,54.0,66.4,56.4,46.6,100,89,72,29.86,29.61,17,7,24,0.00
2012-2-21,75.0,61.0,51.0,73.4,53.2,40.8,100,76,61,29.93,29.77,13,4,16,0.00
2012-2-22,73.0,66.2,59.0,68.0,58.2,49.0,100,77,58,29.79,29.62,15,4,20,0.02
2012-2-23,68.0,68.0,68.0,68.0,68.0,68.0,100,100,100,29.63,29.62,9,2,16,0.00
2012-2-27,77.0,72.1,70.0,74.5,48.6,37.1,92,48,30,30.41,30.38,10,5,10,0.00
2012-2-28,79.0,72.9,65.0,78.4,61.7,20.8,100,76,16,30.43,30.34,9,5,13,0.00
2012-2-29,81.0,74.9,66.0,81.0,58.7,9.2,100,72,9,30.35,30.25,12,7,15,0.00
2012-3-1,77.0,69.5,67.0,64.9,42.9,10.1,93,47,10,30.30,30.15,10,3,15,0.00
2012-3-2,79.0,75.3,69.0,79.0,58.0,15.3,100,61,11,30.21,30.09,16,7,20,0.00
2012-3-12,79.0,75.0,69.0,78.4,74.0,69.0,100,97,87,30.40,30.35,13,6,15,0.00
2012-3-13,77.0,67.4,62.0,76.0,46.6,8.7,100,52,12,30.43,30.31,14,5,17,0.00
2012-3-14,80.0,69.1,61.0,78.0,48.9,12.2,100,56,14,30.42,30.27,12,4,16,0.00
2012-3-15,82.0,73.4,62.0,81.0,59.0,16.6,100,69,16,30.43,30.29,19,6,19,0.91
2012-3-16,79.0,69.3,64.0,78.4,35.6,9.9,100,37,11,30.42,30.28,12,4,13,0.00
2012-3-17,80.0,69.0,66.0,76.0,52.0,35.2,100,57,32,30.40,30.28,13,4,15,0.00
2012-3-18,75.0,68.5,61.0,75.0,57.5,31.6,100,71,32,30.42,30.27,16,4,20,0.00
2012-3-19,82.0,71.2,66.0,76.4,64.7,53.4,100,81,64,30.35,30.22,18,6,18,0.00
2012-3-20,80.0,71.6,67.0,79.0,69.1,62.3,100,92,79,30.28,30.15,16,6,17,0.05
2012-3-21,83.0,72.7,67.0,81.1,67.7,56.5,100,85,67,30.30,30.17,16,6,18,0.52
2012-3-22,83.0,73.9,69.0,83.0,63.0,47.3,100,71,45,30.34,30.23,15,5,18,0.00
2012-3-23,78.0,72.8,72.0,78.0,59.7,56.8,100,64,59,30.30,30.24,8,3,8,0.00
2012-3-25,70.0,70.0,70.0,45.2,43.1,41.7,41,38,36,30.05,30.05,9,5,10,0.04
2012-3-26,76.0,73.2,72.0,71.7,68.2,62.9,99,85,64,30.14,30.11,13,6,13,0.01
2012-3-27,81.0,65.4,59.0,72.4,47.0,38.2,98,53,44,30.30,30.16,4,0,4,0.00
2012-3-29,77.0,73.2,67.0,77.0,68.1,51.7,100,86,48,30.23,30.14,10,4,12,0.00
2012-3-30,82.0,68.6,64.0,79.0,53.0,33.1,100,61,25,30.23,30.09,13,3,13,0.00
2012-3-31,74.0,69.4,67.0,57.3,50.0,42.5,71,51,41,30.13,30.07,20,5,23,0.02
2012-4-2,81.0,74.2,64.0,81.0,62.9,33.8,100,72,24,30.13,29.97,14,4,17,0.07
2012-4-3,82.0,72.7,63.0,82.0,56.4,31.0,100,62,22,30.19,30.01,15,3,16,0.00
2012-4-4,83.0,73.3,64.0,83.0,56.8,24.1,100,62,16,30.14,29.98,16,3,18,0.00
2012-4-6,75.0,75.0,75.0,75.0,75.0,75.0,100,100,100,30.01,30.01,17,17,17,0.00
2012-4-9,78.0,74.3,69.0,73.8,69.7,57.1,100,86,66,30.28,30.21,10,5,10,0.00
2012-4-10,80.0,75.9,64.0,76.0,70.3,54.4,100,84,61,30.27,30.15,12,4,12,0.00
2012-4-11,76.0,73.1,70.0,76.0,72.4,68.5,100,98,93,30.21,30.15,10,5,16,0.00
2012-4-12,78.0,72.6,65.0,60.7,57.6,51.5,84,61,43,30.25,30.16,12,7,16,0.00
2012-4-13,80.0,80.0,80.0,80.0,80.0,80.0,100,100,100,30.27,30.27,4,4,9,0.00
2012-4-16,78.0,74.9,70.0,75.5,72.6,70.0,100,93,85,30.38,30.33,12,6,13,0.00
2012-4-23,66.0,64.0,63.0,59.3,56.4,54.0,82,76,70,30.02,29.95,30,12,31,0.00
2012-4-24,68.0,61.8,54.0,54.9,48.3,38.5,83,62,45,30.18,30.01,17,7,22,0.00
2012-4-25,77.0,64.3,52.0,69.1,59.5,42.3,100,85,58,30.29,30.09,13,3,16,0.00
2012-4-26,76.0,68.4,58.0,76.0,64.7,49.6,100,88,60,30.33,30.16,14,4,17,0.00
2012-4-27,82.0,69.0,60.0,76.0,62.0,52.2,100,79,56,30.32,30.17,15,3,19,0.00
2012-4-28,85.0,71.8,64.0,85.0,63.9,50.3,100,77,58,30.29,30.14,14,3,15,0.00
2012-4-29,84.0,79.0,69.0,84.0,76.2,61.4,100,92,67,30.29,30.18,10,4,10,0.00
2012-4-30,85.0,77.2,68.0,83.1,74.1,60.1,100,91,58,30.27,30.17,16,10,22,0.00
2012-5-1,84.0,76.4,69.0,84.0,74.8,66.1,100,95,67,30.25,30.14,15,7,16,0.00
2012-5-2,87.0,76.7,72.0,85.4,76.5,72.0,100,100,88,30.27,30.15,15,8,19,0.07
2012-5-3,88.0,75.2,71.0,86.0,75.1,71.0,100,100,84,30.28,30.16,15,6,16,0.00
2012-5-4,85.0,75.2,72.0,83.0,74.8,72.0,100,99,80,30.28,30.15,12,4,13,0.00
2012-5-5,83.0,78.3,70.0,83.0,78.3,70.0,100,100,100,30.21,30.11,9,3,9,0.00
2012-5-6,83.0,78.9,69.0,83.0,78.7,69.0,100,100,95,30.17,30.06,7,4,7,0.00
2012-5-7,81.0,78.2,69.0,81.0,77.2,65.9,100,97,79,30.13,30.00,13,6,14,0.00
2012-5-8,80.0,79.7,79.0,80.0,78.1,70.1,100,95,72,30.11,30.09,8,3,10,0.00
2012-5-10,81.0,77.8,76.0,81.0,77.8,76.0,100,100,100,30.05,30.04,15,5,15,0.00
2012-5-16,72.0,72.0,72.0,72.0,72.0,72.0,100,100,100,30.08,30.08,3,3,3,0.00
2012-5-22,80.0,80.0,80.0,80.0,80.0,80.0,100,100,100,30.07,30.07,10,10,10,0.00
2012-5-23,85.0,82.0,79.0,85.0,81.2,77.4,100,98,95,30.13,30.11,2,1,2,0.00
2012-5-29,80.0,75.2,70.0,80.0,75.2,70.0,100,100,100,30.11,30.02,22,8,22,0.75
2012-5-30,77.0,77.0,77.0,77.0,77.0,77.0,100,100,100,30.01,30.01,6,6,7,0.00
2012-6-4,82.0,79.9,78.0,82.0,79.9,78.0,100,100,100,30.16,30.01,18,7,18,0.00
2012-6-5,81.0,77.9,72.0,81.0,77.9,72.0,100,100,100,30.06,29.95,16,6,26,0.16
2012-6-6,82.0,76.5,73.0,82.0,76.5,73.0,100,100,100,30.07,29.97,23,4,28,0.10
2012-6-7,80.0,75.1,72.0,80.0,75.1,72.0,100,100,100,30.10,30.03,20,3,20,1.06
2012-6-8,83.0,74.4,70.0,83.0,74.4,70.0,100,100,100,30.15,30.01,11,2,16,0.75
2012-6-9,87.0,78.1,70.0,87.0,78.1,70.0,100,100,100,30.18,30.02,15,5,17,0.02
2012-6-10,90.0,81.3,75.0,90.0,81.3,75.0,100,100,100,30.29,30.11,15,6,16,0.21
2012-6-11,92.0,80.8,73.0,92.0,80.8,73.0,100,100,100,30.33,30.18,13,5,16,0.00
2012-6-12,90.0,80.6,75.0,90.0,80.6,75.0,100,100,100,30.26,30.13,15,5,16,0.00
2012-6-13,84.0,80.0,76.0,84.0,80.0,76.0,100,100,100,30.16,30.08,13,6,19,0.00
2012-6-14,85.0,79.7,74.0,85.0,79.7,74.0,100,100,100,30.21,30.05,16,6,21,0.00
2012-6-15,86.0,77.3,71.0,86.0,77.3,71.0,100,100,100,30.23,30.08,16,5,22,0.00
2012-6-16,87.0,79.2,71.0,87.0,78.7,71.0,100,99,86,30.25,30.13,15,7,20,0.00
2012-6-17,87.0,78.5,68.0,87.0,78.3,68.0,100,99,89,30.26,30.12,19,6,22,0.00
2012-6-18,88.0,79.3,71.0,86.0,78.0,71.0,100,96,72,30.23,30.10,18,6,23,0.00
2012-6-19,85.0,77.8,69.0,85.0,77.8,69.0,100,100,100,30.26,30.15,17,7,23,0.00
2012-6-20,84.0,75.4,72.0,84.0,75.4,72.0,100,100,100,30.20,30.13,19,8,25,0.00
2012-8-31,92.0,85.1,81.0,92.0,65.7,19.9,100,61,12,30.37,30.27,17,5,17,0.00
2012-9-1,89.0,81.7,76.0,89.0,61.9,18.2,100,61,9,30.37,30.23,13,5,17,0.00
2012-9-2,89.0,80.3,75.0,89.0,56.0,6.1,100,54,6,30.29,30.16,14,5,17,0.00
2012-9-3,90.0,80.3,72.0,90.0,53.9,-31.5,100,61,1,30.28,30.14,12,4,15,0.00
2012-9-4,89.0,79.5,73.0,89.0,58.4,-29.7,100,64,1,30.23,30.12,11,2,18,0.07
2012-9-5,87.0,79.9,73.0,87.0,61.4,4.3,100,63,5,30.19,30.07,14,4,17,0.00
2012-9-6,86.0,78.4,74.0,86.0,58.6,-8.5,100,62,3,30.21,30.08,12,5,20,0.01
2012-9-7,85.0,78.9,74.0,84.0,61.1,9.0,100,65,6,30.19,30.07,15,3,17,0.00
2012-9-8,87.0,80.0,74.0,86.0,59.5,4.3,100,63,5,30.14,30.02,20,5,20,0.00
2012-9-9,81.0,77.9,70.0,80.0,54.3,25.4,100,55,13,30.12,30.01,19,6,20,1.52
2012-9-10,77.0,76.7,74.0,77.0,73.1,64.3,100,90,65,30.11,30.07,14,2,14,0.50
2012-9-17,83.0,79.4,78.0,75.5,53.2,31.8,92,43,18,30.10,30.06,13,5,13,0.00
2012-9-18,82.0,76.1,73.0,79.0,72.0,45.7,100,90,31,30.10,30.01,14,4,20,0.70
2012-9-19,84.0,77.3,73.0,76.8,54.7,8.3,100,58,6,30.19,30.05,10,3,15,0.03
2012-9-20,87.0,77.4,74.0,87.0,50.4,-32.1,100,65,1,30.21,30.12,10,2,13,0.01
2012-9-21,88.0,76.7,72.0,88.0,56.4,-31.5,100,62,1,30.21,30.10,15,3,24,0.05
2012-9-22,84.0,74.2,70.0,84.0,61.2,28.7,100,74,17,30.22,30.07,11,2,13,0.00
2012-9-23,85.0,75.5,70.0,85.0,65.6,28.1,100,80,15,30.27,30.14,15,3,15,0.00
2012-9-24,83.0,75.1,70.0,80.0,73.4,70.0,100,95,74,30.29,30.15,13,5,15,0.00
2012-9-25,84.0,74.0,66.0,83.0,53.2,27.9,100,55,21,30.27,30.15,11,2,13,0.00
2012-9-26,90.0,77.0,69.0,90.0,68.3,5.4,100,83,6,30.32,30.16,13,4,15,0.00
2012-9-27,90.0,78.7,71.0,90.0,69.2,15.5,100,80,8,30.32,30.19,16,4,19,0.00
2012-9-28,87.0,77.7,71.0,87.0,68.7,11.7,100,80,8,30.25,30.12,14,4,17,0.00
2012-9-29,89.0,77.9,72.0,89.0,73.7,25.0,100,90,17,30.17,30.03,14,4,16,0.00
2012-9-30,88.0,78.9,73.0,88.0,76.7,61.8,100,94,49,30.07,29.95,12,2,16,0.00
2012-10-1,85.0,79.3,74.0,85.0,76.0,60.3,100,91,48,29.99,29.90,19,5,22,0.13
2012-10-2,85.0,78.3,74.0,80.0,72.9,55.4,100,85,39,30.17,29.93,14,4,26,0.12
2012-10-3,81.0,74.5,71.0,81.0,74.3,63.3,100,100,71,30.29,30.14,22,3,23,1.84
2012-10-4,90.0,76.3,70.0,90.0,70.0,38.5,100,85,26,30.37,30.23,17,5,25,0.12
2012-10-5,83.0,75.2,71.0,79.0,71.3,51.6,100,90,34,30.27,30.12,12,4,22,0.01
2012-10-6,87.0,76.9,72.0,87.0,69.9,48.3,100,83,31,30.18,30.05,13,4,21,0.00
2012-10-7,87.0,76.2,71.0,87.0,74.3,59.7,100,95,51,30.18,30.05,15,4,16,0.00
2012-10-8,83.0,75.8,71.0,80.0,73.9,61.5,100,95,54,30.19,30.07,13,2,15,0.00
2012-10-9,83.0,75.7,70.0,83.0,72.6,49.8,100,92,35,30.22,30.10,10,2,12,0.00
2012-10-10,82.0,72.8,68.0,82.0,70.6,54.0,100,94,44,30.29,30.15,13,4,16,0.00
2012-10-11,85.0,73.8,66.0,85.0,70.2,48.1,100,90,39,30.34,30.19,13,4,19,0.00
2012-10-12,84.0,73.8,64.0,84.0,72.4,52.1,100,96,48,30.37,30.23,15,5,19,0.00
2012-10-13,84.0,74.3,66.0,84.0,72.6,58.8,100,95,63,30.35,30.23,20,5,23,0.00
2012-10-14,88.0,76.0,67.0,88.0,75.4,66.5,100,98,68,30.27,30.13,14,4,19,0.00
2012-10-15,87.0,75.7,70.0,87.0,75.5,70.0,100,99,76,30.16,29.98,14,4,17,0.19
2012-10-16,84.0,73.4,66.0,84.0,73.1,66.0,100,99,76,30.05,29.94,15,4,17,0.00
2012-10-17,79.0,71.3,67.0,79.0,71.3,64.3,100,100,91,30.05,29.93,7,1,10,0.00
2012-10-18,83.0,73.8,68.0,78.0,65.6,54.5,100,76,57,30.06,29.92,12,2,15,0.03
2012-10-19,74.0,68.3,67.0,61.0,56.8,54.4,73,67,62,30.01,29.94,3,0,6,0.00
2012-10-31,69.0,64.8,60.0,63.0,59.6,54.1,84,83,81,30.18,30.10,19,5,19,0.00
2012-11-1,75.0,67.2,60.0,69.2,61.6,53.7,85,82,77,30.17,30.08,13,3,19,0.00
2012-11-2,76.0,64.9,56.0,71.5,58.2,46.0,86,79,68,30.25,30.10,15,2,15,0.01
2012-11-3,78.0,67.9,58.0,73.1,61.2,50.1,85,79,72,30.30,30.14,16,3,16,0.00
2012-11-4,78.0,67.2,61.0,73.1,58.1,51.5,86,73,64,30.25,30.11,11,2,13,0.01
2012-11-5,76.0,68.2,63.0,71.5,61.3,54.6,86,79,69,30.15,30.03,14,3,15,0.00
2012-11-6,73.0,65.9,60.0,67.9,59.3,51.3,84,79,72,30.04,29.95,12,3,17,0.09
2012-11-7,65.0,61.4,57.0,60.0,55.9,51.2,84,82,81,30.09,29.96,20,8,26,0.00
2012-11-8,64.0,55.9,49.0,59.1,50.3,43.1,84,81,78,30.26,30.06,19,5,25,0.00
2012-11-9,73.0,58.5,45.0,68.2,52.8,37.5,85,81,75,30.38,30.21,10,2,16,0.00
2012-11-10,74.0,63.8,53.0,69.2,58.6,47.0,85,83,80,30.44,30.28,11,3,13,0.00
2012-11-11,78.0,67.5,57.0,73.5,62.2,50.5,86,83,79,30.43,30.31,13,4,19,0.00
2012-11-12,83.0,69.5,62.0,78.4,63.2,49.7,86,81,64,30.39,30.27,12,3,17,0.03
2012-11-13,81.0,69.5,64.0,76.0,62.1,51.2,85,78,60,30.35,30.21,11,3,15,0.01
2012-11-14,75.0,66.6,62.0,69.1,56.0,45.1,84,69,52,30.30,30.20,12,4,15,0.00
2012-11-15,72.0,64.4,59.0,66.5,53.8,48.0,83,69,59,30.27,30.17,12,4,15,0.00
2012-11-16,66.0,59.7,56.0,60.3,49.8,40.9,82,70,57,30.27,30.19,13,5,15,0.01
2012-11-17,76.0,63.9,57.0,71.1,56.0,46.1,85,76,65,30.28,30.18,16,6,22,0.00
2012-11-18,72.0,62.8,56.0,66.9,55.3,47.8,84,77,68,30.30,30.20,16,5,21,0.00
2012-11-19,69.0,58.8,52.0,63.6,50.9,39.4,83,75,62,30.28,30.17,14,5,17,0.00
2012-11-20,68.0,61.6,57.0,62.6,54.3,45.4,83,77,63,30.21,30.09,15,6,19,0.00
2012-11-21,70.0,62.3,56.0,65.3,54.6,42.3,85,76,60,30.21,30.09,18,6,21,0.00
2012-11-22,72.0,59.7,52.0,67.2,53.8,43.2,85,81,72,30.28,30.14,19,5,22,0.00
2012-11-23,68.0,57.7,45.0,63.0,52.0,38.9,84,81,73,30.35,30.17,13,3,19,0.00
2012-11-24,68.0,58.8,53.0,61.6,50.1,38.6,83,74,54,30.24,30.11,15,4,22,0.00
2012-11-25,67.0,54.7,45.0,62.0,49.1,38.9,84,81,78,30.29,30.12,13,3,17,0.00
2012-11-26,76.0,58.8,46.0,71.5,53.2,38.8,86,82,76,30.34,30.16,9,2,12,0.00
2012-11-27,78.0,65.7,58.0,73.5,57.1,44.2,86,74,58,30.32,30.21,15,2,18,0.00
2012-11-28,71.0,63.2,56.0,65.9,52.4,39.7,84,69,47,30.37,30.21,16,5,19,0.00
2012-11-29,76.0,63.2,52.0,71.5,56.5,41.0,86,79,66,30.39,30.29,13,6,17,0.00
2012-11-30,78.0,65.3,57.0,71.5,59.7,48.8,86,82,74,30.38,30.29,13,4,17,0.00
2012-12-1,77.0,65.8,56.0,72.5,59.7,44.8,86,81,66,30.39,30.25,14,3,16,0.00
2012-12-2,79.0,67.7,61.0,74.4,60.1,48.3,86,77,63,30.42,30.29,11,4,17,0.00
2012-12-3,78.0,68.9,63.0,73.5,61.6,50.2,86,78,63,30.42,30.30,12,3,15,0.00
2012-12-4,77.0,67.0,58.0,72.5,60.0,44.2,86,79,60,30.42,30.28,12,3,13,0.00
2012-12-5,79.0,66.2,57.0,74.4,59.8,46.9,86,80,68,30.31,30.15,12,4,15,0.00
2012-12-6,78.0,68.6,63.0,73.5,61.1,51.4,86,77,66,30.16,30.07,10,4,13,0.00
2012-12-7,75.0,65.4,61.0,69.8,54.1,44.2,84,68,54,30.12,30.03,11,3,13,0.00
2012-12-8,79.0,68.5,64.0,74.1,56.4,44.0,85,66,45,30.18,30.05,12,4,15,0.00
2012-12-9,76.0,66.7,61.0,70.4,51.5,38.9,83,59,44,30.24,30.10,11,2,13,0.00
2012-12-10,76.0,68.2,60.0,69.0,49.9,36.5,79,53,35,30.12,29.99,17,4,22,0.27
2012-12-11,78.0,70.8,66.0,71.7,55.4,39.3,81,60,32,30.15,29.99,14,3,16,0.00
2012-12-12,79.0,70.4,66.0,73.7,52.2,40.3,84,54,39,30.23,30.09,13,3,19,0.07
2012-12-13,68.0,62.3,54.0,62.6,52.4,40.9,83,71,40,30.29,30.16,14,8,20,0.01
2012-12-14,59.0,53.3,52.0,52.1,42.1,38.1,78,66,58,30.32,30.21,15,6,20,0.00